Location: Newark
(44.4156°N, 12.1972°E)
Time: 01:11:18
(UTC+00:00)

STARLINK-1110 - Pass Details

Date: 02 February 2020
Orbit: 348 x 351 km, 53.0° (Epoch: 17 February)

Event Time Altitude Azimuth Distance (km) Brightness Sun altitude
Rises 18:00:14 0° 290° (WNW) 2,156 7.8 -17.9°
Reaches altitude 10° 18:02:45 10° 267° (W) 1,309 6.8 -18.4°
Maximum altitude 18:04:37 16° 227° (SW) 1,027 5.7 -18.7°
Drops below altitude 10° 18:06:28 10° 187° (S) 1,302 5.7 -19.0°
Enters shadow 18:07:24 - 176° (S) 1,583 6.0 -19.2°
